Temp
-6 -6 -6 -6 -6 -6 -6 -6 -6 -6 -6 -5 -5 -5 -5 -5 -5 -5 -5 -5 -5 -5 -5 -5 -5 -5 -5 -5 -5 -5 -5 -5 -5 -5 -5 -5 -5 -5 -5 -5 -5 -5
-6 -6 -6 -6 -6 -6 -6 -6 -6 -6 -6 -5 -5 -5 -5 -5 -5 -5 -5 -5 -5 -5 -5 -5 -5 -5 -5 -5 -6 -6 -6 -5 -5 -5 -5 -6 -6 -6 -6 -6 -6 -6
-6 -6 -6 -6 -6 -6 -6 -6 -6 -5 -6 -6 -6 -5 -5 -5 -5 -5 -5 -5 -5 -5 -5 -6 -6 -6 -6 -6 -6 -6 -6 -6 -6 -6 -6 -6 -6 -6 -6 -6 -6 -6
-6 -6 -6 -6 -6 -6 -6 -6 -5 -5 -5 -6 -6 -6 -6 -6 -6 -6 -6 -6 -5 -5 -5 -5 -6 -6 -6 -6 -6 -6 -6 -6 -6 -6 -6 -6 -6 -6 -6 -6 -6 -6
-6 -6 -6 -6 -6 -6 -6 -6 -6 -5 -5 -5 -6 -6 -6 -6 -6 -6 -6 -6 -6 -6 -6 -6 -6 -6 -6 -6 -6 -6 -6 -6 -6 -6 -6 -6 -6 -6 -6 -6 -6 -6
-6 -6 -6 -6 -6 -6 -6 -6 -6 -6 -6 -6 -6 -6 -6 -6 -6 -6 -6 -6 -6 -6 -6 -6 -6 -6 -6 -6 -6 -6 -6 -6 -6 -6 -6 -6 -6 -6 -6 -6 -6 -6
-6 -6 -6 -6 -6 -6 -6 -6 -6 -6 -6 -6 -6 -6 -6 -6 -6 -6 -6 -6 -6 -6 -6 -6 -6 -6 -6 -6 -6 -6 -6 -6 -6 -6 -6 -6 -6 -6 -6 -6 -6 -6
-6 -6 -6 -6 -6 -6 -6 -6 -6 -6 -6 -6 -6 -6 -6 -6 -6 -6 -6 -6 -6 -6 -6 -6 -6 -6 -6 -6 -6 -6 -6 -6 -6 -6 -6 -6 -6 -6 -6 -6 -7 -7
-6 -6 -6 -6 -6 -6 -6 -6 -6 -6 -6 -6 -6 -6 -6 -6 -6 -6 -6 -6 -6 -6 -6 -6 -6 -6 -6 -6 -6 -6 -6 -6 -6 -7 -7 -7 -7 -7 -7 -7 -7 -7
-6 -7 -7 -7 -7 -7 -7 -7 -7 -7 -7 -7 -7 -7 -6 -6 -6 -6 -6 -6 -6 -6 -6 -6 -6 -6 -7 -7 -7 -7 -7 -7 -7 -7 -7 -7 -7 -7 -7 -7 -7 -7
-7 -7 -7 -7 -7 -7 -7 -7 -7 -7 -7 -7 -7 -7 -7 -7 -7 -7 -7 -7 -7 -7 -7 -7 -7 -7 -7 -7 -7 -7 -7 -7 -7 -7 -7 -7 -7 -7 -7 -7 -7 -7
-7 -7 -7 -7 -7 -7 -7 -7 -7 -7 -7 -7 -7 -7 -7 -7 -7 -7 -7 -7 -7 -7 -7 -7 -7 -7 -7 -7 -7 -7 -7 -7 -7 -7 -7 -7 -7 -7 -7 -7 -7 -7
-7 -7 -7 -7 -7 -7 -7 -7 -7 -7 -7 -7 -7 -7 -7 -7 -7 -7 -7 -7 -7 -7 -7 -7 -7 -7 -7 -7 -7 -7 -7 -7 -7 -7 -7 -7 -7 -7 -7 -7 -7 -7
-8 -8 -8 -7 -7 -7 -7 -7 -7 -7 -7 -7 -7 -7 -7 -7 -7 -7 -7 -7 -7 -7 -7 -7 -7 -7 -7 -7 -7 -7 -7 -7 -7 -7 -7 -7 -7 -8 -8 -8 -8 -8
-8 -8 -8 -8 -7 -7 -7 -7 -7 -7 -7 -7 -7 -7 -7 -7 -7 -7 -7 -7 -7 -7 -7 -7 -7 -7 -7 -7 -7 -7 -7 -7 -7 -7 -8 -8 -8 -8 -8 -8 -8 -8
-8 -8 -8 -8 -8 -8 -8 -8 -7 -7 -7 -7 -7 -7 -7 -7 -7 -7 -7 -7 -7 -7 -7 -7 -7 -7 -7 -7 -7 -7 -8 -8 -8 -8 -8 -8 -8 -8 -8 -8 -8 -9
-8 -8 -8 -8 -8 -8 -8 -8 -8 -8 -8 -8 -8 -8 -8 -7 -7 -8 -8 -8 -8 -8 -8 -7 -7 -7 -8 -8 -8 -8 -8 -8 -8 -8 -8 -8 -9 -9 -9 -9 -9 -9
-8 -8 -8 -8 -8 -8 -8 -8 -9 -9 -8 -8 -8 -8 -8 -8 -8 -8 -8 -8 -8 -8 -8 -8 -8 -8 -8 -8 -8 -8 -8 -9 -9 -9 -9 -9 -9 -9 -9 -9 -9 -9
-8 -8 -8 -8 -8 -8 -8 -8 -9 -9 -9 -9 -9 -9 -9 -9 -9 -8 -8 -8 -8 -8 -8 -8 -8 -8 -8 -9 -9 -9 -9 -9 -9 -9 -9 -9 -9 -9 -9 -9 -9 -9
-8 -8 -8 -8 -8 -8 -8 -9 -9 -9 -9 -9 -9 -9 -9 -9 -9 -9 -9 -9 -9 -8 -8 -8 -9 -9 -9 -9 -9 -9 -9 -9 -9 -9 -9 -9 -9 -9 -9 -9 -9 -9
-8 -8 -8 -8 -8 -8 -9 -9 -9 -9 -9 -9 -9 -9 -9 -9 -9 -9 -9 -9 -9 -9 -9 -9 -9 -9 -9 -9 -9 -9 -9 -9 -9 -10 -10 -10 -10 -10 -9 -9 -9 -9
-8 -8 -8 -8 -8 -9 -9 -9 -9 -9 -9 -9 -9 -9 -9 -9 -9 -9 -9 -9 -9 -9 -9 -9 -9 -10 -10 -10 -10 -10 -10 -10 -10 -10 -10 -10 -10 -10 -10 -10 -10 -10
-8 -8 -8 -8 -9 -9 -9 -9 -9 -9 -9 -9 -9 -9 -9 -9 -9 -9 -9 -9 -9 -9 -9 -10 -10 -10 -10 -10 -10 -10 -10 -10 -10 -10 -10 -10 -10 -10 -10 -10 -10 -10
-9 -9 -9 -9 -9 -9 -9 -9 -9 -9 -9 -9 -9 -9 -9 -9 -9 -9 -9 -9 -9 -9 -10 -10 -10 -10 -10 -10 -10 -10 -10 -9 -9 -9 -9 -9 -9 -10 -10 -10 -10 -10
-9 -9 -9 -9 -9 -9 -9 -9 -9 -9 -9 -9 -9 -9 -9 -9 -9 -9 -9 -9 -9 -9 -10 -10 -10 -10 -10 -10 -10 -9 -9 -9 -9 -9 -9 -9 -10 -10 -10 -10 -10 -10
-9 -9 -9 -9 -9 -9 -9 -9 -9 -9 -9 -9 -10 -10 -10 -10 -9 -9 -9 -9 -9 -10 -10 -10 -10 -10 -10 -9 -9 -9 -9 -9 -9 -9 -9 -9 -10 -10 -10 -10 -10 -10
Height
5894 5895 5895 5896 5896 5897 5897 5898 5898 5898 5898 5898 5898 5899 5899 5899 5899 5899 5899 5899 5899 5899 5900 5900 5900 5899 5899 5899 5899 5899 5898 5898 5898 5898 5898 5897 5897 5896 5896 5895 5895 5895
5894 5895 5896 5896 5897 5897 5898 5898 5898 5898 5898 5898 5898 5898 5898 5898 5898 5898 5898 5898 5898 5898 5898 5898 5898 5898 5898 5898 5898 5897 5897 5897 5896 5896 5895 5895 5894 5894 5893 5893 5893 5892
5894 5895 5895 5896 5897 5897 5897 5898 5898 5898 5898 5898 5898 5898 5898 5898 5898 5898 5897 5897 5897 5897 5897 5897 5897 5896 5896 5896 5896 5895 5895 5894 5894 5893 5892 5892 5891 5891 5890 5890 5890 5889
5894 5894 5895 5896 5896 5897 5897 5897 5897 5898 5898 5898 5898 5898 5897 5897 5897 5897 5896 5896 5896 5896 5895 5895 5895 5894 5894 5894 5893 5892 5892 5891 5891 5890 5889 5889 5888 5887 5887 5887 5886 5886
5894 5894 5895 5895 5896 5896 5896 5896 5896 5897 5897 5897 5897 5896 5896 5896 5896 5895 5895 5894 5894 5894 5893 5893 5892 5892 5891 5891 5890 5889 5888 5888 5887 5886 5885 5885 5884 5884 5883 5882 5882 5881
5893 5894 5894 5894 5895 5895 5895 5895 5895 5895 5895 5895 5895 5895 5895 5894 5894 5893 5893 5892 5892 5891 5891 5890 5890 5889 5888 5887 5887 5886 5885 5884 5883 5882 5881 5881 5880 5879 5879 5878 5877 5876
5893 5893 5893 5893 5893 5893 5893 5893 5893 5893 5893 5893 5893 5893 5892 5892 5892 5891 5890 5890 5889 5888 5887 5887 5886 5885 5884 5883 5883 5882 5881 5880 5879 5878 5877 5876 5875 5875 5874 5873 5873 5871
5892 5892 5893 5893 5893 5892 5892 5892 5892 5892 5891 5891 5891 5890 5890 5889 5889 5888 5887 5887 5886 5885 5884 5883 5882 5881 5880 5879 5878 5877 5876 5875 5874 5873 5872 5871 5870 5869 5868 5868 5867 5866
5891 5891 5891 5891 5891 5891 5891 5890 5890 5890 5889 5889 5888 5888 5887 5886 5886 5885 5884 5883 5882 5881 5880 5879 5878 5877 5876 5875 5874 5873 5872 5871 5870 5869 5868 5867 5865 5864 5863 5862 5862 5860
5889 5890 5889 5889 5889 5889 5888 5888 5888 5887 5887 5886 5885 5885 5884 5883 5882 5881 5880 5879 5878 5877 5876 5875 5874 5873 5872 5871 5870 5868 5867 5866 5865 5864 5863 5862 5861 5860 5859 5857 5856 5855
5888 5888 5888 5887 5887 5886 5886 5886 5885 5884 5884 5883 5882 5881 5881 5880 5879 5877 5876 5875 5874 5873 5872 5871 5870 5869 5868 5867 5865 5864 5863 5862 5861 5859 5858 5857 5856 5855 5854 5853 5852 5850
5886 5886 5885 5884 5884 5883 5883 5882 5881 5881 5880 5879 5879 5878 5877 5876 5875 5874 5873 5872 5870 5869 5868 5867 5866 5865 5864 5862 5861 5860 5859 5858 5856 5855 5854 5852 5851 5849 5848 5847 5846 5845
5883 5883 5882 5881 5880 5879 5879 5878 5877 5877 5876 5876 5875 5874 5873 5872 5871 5870 5869 5868 5867 5866 5864 5863 5862 5861 5859 5858 5857 5856 5854 5853 5852 5850 5849 5847 5846 5844 5843 5842 5840 5839
5879 5879 5878 5877 5876 5875 5875 5874 5874 5873 5873 5872 5871 5870 5869 5868 5867 5866 5865 5864 5863 5862 5860 5859 5858 5856 5855 5854 5852 5851 5850 5848 5847 5845 5844 5842 5841 5839 5838 5836 5835 5834
5875 5875 5874 5873 5873 5872 5871 5871 5871 5870 5869 5868 5867 5866 5865 5864 5863 5862 5861 5860 5859 5857 5856 5855 5853 5852 5850 5849 5848 5846 5845 5843 5842 5840 5839 5837 5836 5834 5832 5831 5829 5828
5872 5871 5871 5870 5870 5869 5868 5867 5867 5867 5866 5865 5864 5863 5862 5860 5859 5858 5857 5856 5854 5853 5852 5851 5849 5847 5846 5844 5843 5841 5840 5838 5837 5835 5834 5832 5830 5828 5827 5825 5823 5822
5869 5869 5869 5868 5868 5866 5865 5864 5864 5863 5862 5861 5860 5859 5858 5857 5856 5855 5853 5852 5850 5849 5848 5846 5844 5843 5841 5839 5838 5836 5835 5833 5832 5830 5828 5827 5825 5823 5821 5819 5818 5816
5867 5867 5866 5866 5865 5863 5862 5861 5860 5859 5858 5858 5857 5856 5854 5852 5851 5850 5849 5848 5847 5845 5844 5842 5840 5838 5837 5835 5833 5832 5830 5829 5827 5825 5823 5822 5820 5818 5816 5814 5812 5810
5865 5864 5863 5862 5861 5860 5858 5857 5856 5855 5854 5853 5853 5851 5849 5847 5846 5846 5845 5844 5842 5841 5839 5838 5836 5834 5832 5831 5829 5827 5825 5824 5822 5820 5818 5816 5813 5811 5809 5807 5805 5803
5863 5861 5860 5859 5857 5856 5854 5853 5852 5851 5850 5850 5849 5847 5845 5844 5843 5842 5841 5840 5838 5837 5835 5833 5832 5830 5828 5826 5824 5822 5820 5818 5816 5814 5812 5809 5807 5805 5803 5801 5799 5797
5860 5858 5856 5855 5854 5852 5850 5849 5849 5849 5848 5847 5846 5844 5842 5841 5840 5838 5837 5836 5834 5833 5831 5829 5828 5826 5824 5822 5819 5817 5815 5813 5811 5808 5806 5804 5801 5799 5797 5795 5792 5790
5858 5856 5855 5853 5852 5850 5848 5847 5847 5847 5845 5844 5843 5841 5839 5838 5837 5835 5834 5832 5830 5829 5827 5825 5823 5821 5819 5817 5815 5812 5810 5808 5806 5804 5801 5799 5796 5793 5791 5788 5786 5783
5855 5854 5853 5852 5850 5849 5847 5846 5845 5844 5843 5841 5839 5838 5836 5835 5833 5832 5830 5828 5826 5825 5823 5821 5819 5816 5814 5812 5809 5807 5805 5803 5801 5798 5796 5793 5791 5787 5784 5782 5779 5776
5853 5852 5851 5850 5849 5847 5846 5844 5842 5841 5839 5838 5836 5834 5833 5831 5829 5828 5826 5824 5821 5819 5818 5815 5813 5811 5809 5806 5804 5802 5800 5798 5795 5792 5790 5787 5784 5781 5778 5775 5772 5769
5852 5851 5850 5849 5847 5845 5843 5841 5840 5838 5837 5835 5833 5831 5829 5827 5825 5823 5821 5819 5816 5814 5812 5810 5808 5805 5804 5801 5799 5796 5794 5791 5789 5786 5783 5781 5778 5775 5772 5769 5765 5762
5850 5849 5848 5847 5845 5843 5841 5839 5837 5836 5834 5832 5830 5827 5825 5823 5821 5819 5816 5814 5812 5809 5807 5805 5803 5801 5799 5797 5794 5791 5788 5785 5783 5780 5777 5775 5772 5769 5766 5762 5759 5755
Wind_Speed
7 7 7 7 7 7 7 8 9 10 11 12 11 11 12 12 12 11 11 12 13 13 14 14 14 14 14 15 16 16 17 17 17 18 19 19 20 21 21 21 22 22
6 7 7 7 7 8 9 10 11 12 13 13 13 13 13 14 14 14 14 15 15 16 16 16 17 17 18 18 19 20 20 21 21 21 22 22 23 24 25 25 26 26
6 7 8 9 9 10 11 12 13 13 14 14 15 15 15 16 16 16 17 17 18 18 18 19 19 20 21 21 22 23 23 24 24 25 25 26 27 27 28 29 29 30
7 8 10 11 11 12 13 14 14 15 15 16 16 17 17 18 18 19 19 20 21 21 21 22 22 23 23 24 25 25 26 26 27 28 29 29 30 31 31 32 33 33
8 9 10 12 13 13 14 15 16 16 17 17 18 18 19 20 21 21 22 23 23 24 24 25 25 26 26 27 28 28 29 30 30 31 32 32 33 34 34 35 35 36
10 11 12 13 14 15 16 16 17 18 19 19 20 21 22 22 23 24 25 25 26 27 27 28 28 29 29 30 30 31 32 32 33 34 35 35 35 36 36 36 37 37
12 13 14 15 16 17 18 19 20 20 21 22 23 24 24 25 26 26 27 28 28 29 30 31 31 31 32 32 33 33 34 34 35 35 36 36 36 37 37 37 37 38
14 15 16 17 18 19 20 21 22 22 23 24 25 26 26 27 28 28 29 29 30 30 31 32 32 33 33 33 34 34 35 35 36 36 37 37 38 38 38 39 39 39
16 17 17 18 19 20 21 21 22 23 24 25 26 26 27 28 28 29 29 29 30 30 31 31 32 33 33 34 35 35 36 37 37 38 38 38 39 39 40 40 40 40
19 19 20 21 21 22 23 23 24 25 25 26 26 27 27 28 28 29 29 29 30 30 31 32 33 34 35 36 36 37 38 38 39 39 39 39 39 39 40 40 40 40
19 20 21 22 23 24 24 25 25 26 26 27 27 28 28 29 29 30 30 31 31 32 33 33 34 35 36 37 37 38 38 39 39 39 40 40 40 40 40 40 40 40
18 20 21 22 23 24 24 25 26 26 27 27 28 29 29 30 30 31 31 32 32 33 34 34 35 35 36 37 38 38 39 39 39 40 40 41 41 42 41 41 41 40
18 19 20 21 23 24 25 25 26 26 27 27 28 29 29 30 31 31 32 32 33 34 34 35 36 36 37 38 38 39 39 40 40 41 41 41 41 42 42 42 41 41
19 20 21 22 23 25 25 26 26 26 27 28 29 30 30 31 32 32 33 33 34 35 35 36 36 37 38 38 39 39 40 41 41 41 41 41 41 41 41 41 41 41
21 22 23 24 25 27 28 28 28 28 29 29 30 31 32 33 34 34 35 35 35 36 36 36 37 37 38 38 39 39 40 40 41 40 40 40 40 40 40 40 41 41
23 24 25 26 27 29 30 31 30 30 30 31 32 33 35 36 36 36 36 36 36 37 37 38 38 38 38 38 38 39 39 39 39 40 40 40 40 40 41 41 42 43
25 26 27 27 29 31 32 33 33 32 32 32 33 34 35 37 37 37 36 36 37 38 39 39 39 38 38 38 38 38 39 39 39 40 41 41 42 43 43 44 45 46
25 26 26 28 29 31 32 33 34 33 33 33 34 35 37 39 39 38 37 38 39 39 40 39 38 38 38 38 38 39 39 40 41 42 43 44 45 46 47 47 47 47
24 25 26 27 28 29 30 30 31 31 31 32 33 34 35 37 39 39 39 40 40 40 40 39 38 38 38 39 40 41 42 43 44 46 46 47 47 47 46 46 45 45
23 24 25 25 25 26 27 28 28 27 27 27 29 30 31 31 33 35 37 39 39 39 39 39 39 39 40 41 42 43 45 46 46 46 46 45 44 44 43 43 44 44
23 24 24 23 23 23 23 24 24 25 25 27 29 30 30 30 31 32 34 36 37 38 38 39 40 41 42 43 44 45 45 44 43 42 42 42 42 43 44 45 46 47
24 24 23 23 22 22 21 22 23 24 27 29 31 31 32 32 33 33 34 35 36 38 39 40 41 42 43 43 43 42 41 40 39 40 41 42 43 45 46 47 48 49
24 22 22 22 22 22 23 24 25 27 29 30 31 32 33 34 35 35 36 37 38 39 40 41 41 42 41 41 39 38 38 38 39 41 42 44 45 46 47 47 48 48
23 21 21 23 24 25 26 27 28 29 31 31 32 33 34 35 36 36 37 38 39 39 40 40 40 40 39 38 38 38 39 40 42 43 45 45 46 47 47 47 48 48
23 23 25 27 28 28 29 29 30 31 31 32 33 34 35 36 36 37 38 38 39 40 40 39 38 38 37 38 39 40 42 43 44 45 45 46 46 46 47 48 49 50
26 27 29 29 29 29 29 30 30 31 31 32 33 34 35 36 36 37 38 38 39 38 38 37 36 37 38 39 41 43 44 44 45 45 45 45 46 47 47 49 50 51
Wind_Direction
165 177 188 200 214 224 228 228 227 229 233 237 238 237 239 242 245 248 249 250 253 257 260 263 264 265 267 269 271 271 270 270 269 269 270 271 272 273 274 275 276 277
189 199 212 226 239 245 244 239 235 235 239 245 248 247 248 251 253 256 258 260 262 265 268 271 272 273 273 272 272 272 272 272 272 272 272 272 273 274 274 275 275 276
225 230 241 253 260 260 257 253 248 247 248 251 254 256 258 259 261 264 266 268 270 271 272 273 274 274 274 273 272 272 272 273 273 274 274 274 274 274 274 275 275 275
259 261 264 268 270 267 265 263 261 259 257 257 259 261 264 267 269 271 272 274 275 276 276 276 276 275 274 274 273 273 273 273 273 273 273 274 274 274 274 275 275 275
274 273 274 273 273 272 270 269 268 268 267 267 268 269 270 272 274 275 276 277 278 278 278 278 277 277 276 276 275 275 275 275 275 275 274 274 274 274 274 275 275 275
282 279 278 277 277 277 276 274 274 274 274 274 275 275 276 276 277 277 278 279 280 280 280 280 279 279 278 278 277 276 276 276 275 275 275 274 274 274 274 275 276 277
285 284 282 281 280 280 280 279 279 279 279 279 279 279 279 279 279 279 280 281 281 282 282 282 281 281 280 280 279 279 278 278 278 278 278 278 278 278 279 279 280 281
288 285 284 283 282 282 282 282 283 283 283 283 283 283 283 282 282 282 282 282 282 282 282 282 282 282 282 282 282 282 282 282 282 282 283 284 285 285 285 285 285 285
288 289 289 289 289 289 289 289 289 288 288 287 287 286 285 284 284 283 283 283 283 283 283 283 284 285 285 286 286 286 286 286 286 287 287 288 288 288 288 288 289 288
290 292 293 294 294 293 293 293 292 290 289 288 287 286 285 285 284 284 284 285 285 286 286 287 288 288 289 289 289 289 289 289 290 290 290 290 289 289 289 289 289 289
290 292 293 293 293 293 292 291 290 289 288 287 287 286 286 286 286 286 287 288 288 289 289 289 290 290 290 290 290 290 290 290 291 291 291 291 291 290 290 289 289 288
294 294 294 294 293 292 291 290 289 288 288 288 288 288 288 288 288 289 289 290 290 290 290 290 290 290 290 290 290 291 292 292 293 293 293 293 292 291 290 289 288 287
296 294 293 292 291 290 289 288 288 288 289 289 289 289 289 289 289 289 290 290 290 290 291 291 291 291 291 292 293 294 294 294 294 293 293 292 291 290 289 289 288 287
292 291 290 290 289 289 288 288 289 289 289 289 290 289 289 290 290 290 290 291 291 290 290 290 290 291 292 293 294 294 294 294 293 292 291 291 290 290 289 289 288 288
288 288 289 289 289 289 289 289 289 289 289 290 290 290 291 291 291 291 291 291 290 290 291 292 292 293 293 293 293 293 293 293 293 292 292 291 291 291 290 290 289 289
287 287 287 288 288 288 287 287 286 287 287 289 289 289 290 290 290 290 291 292 294 295 297 297 297 296 295 294 294 295 295 295 295 294 294 294 293 293 292 292 291 290
287 288 288 289 289 288 287 286 285 285 285 286 287 287 287 287 287 288 291 294 297 299 301 300 298 297 297 297 297 298 298 297 297 296 295 294 294 293 293 292 291 290
292 293 294 293 292 291 290 289 288 285 284 285 286 287 285 283 283 285 289 294 297 299 300 300 299 298 298 299 299 298 298 297 296 295 295 294 294 293 292 292 291 291
301 302 301 299 298 295 292 291 291 288 287 287 288 289 289 286 283 283 286 291 295 298 299 299 299 299 300 300 299 298 298 297 297 296 296 295 294 294 293 292 292 291
308 307 306 306 308 304 296 292 294 296 295 294 293 295 297 297 292 288 288 292 296 298 299 299 300 301 300 300 299 299 298 298 297 297 296 295 295 294 293 293 293 292
311 310 310 311 314 313 304 298 298 301 302 301 300 301 303 303 300 296 295 295 297 299 300 301 301 300 300 299 299 298 298 297 297 296 296 296 296 296 296 296 295 295
312 314 314 314 315 315 313 308 304 303 302 302 303 304 303 302 301 299 299 299 299 300 301 301 300 299 299 298 298 298 297 297 297 297 297 297 297 297 297 296 295 295
314 315 316 315 316 315 313 309 306 304 303 303 303 302 301 301 300 300 300 301 301 301 301 300 300 300 300 300 299 299 298 298 298 298 298 298 297 297 297 296 296 295
315 314 316 317 316 314 310 308 306 306 304 304 303 302 301 301 301 302 303 303 303 302 302 302 302 302 301 301 300 300 300 300 300 300 300 300 299 299 298 298 296 295
314 314 317 317 314 312 310 309 308 307 306 306 305 305 305 305 306 306 306 306 305 305 304 304 304 303 303 302 302 303 302 302 302 302 301 301 300 299 298 297 296 294
315 315 315 313 311 309 309 310 310 309 309 309 308 308 308 308 308 308 308 307 306 306 306 305 305 305 305 305 305 304 304 303 302 301 301 300 299 298 297 296 295 295